Time,TemperatureF,DewpointF,PressureIn,WindDirection,WindDirectionDegrees,WindSpeedMPH,WindSpeedGustMPH,Humidity,HourlyPrecipIn,Conditions,Clouds,dailyrainin,SoftwareType,DateUTC
2013-10-09 00:00:00,50.5,44.2,30.27,SE,146,0.0,3.0,79,0.00,,---,0.01,VWS V14.01,2013-10-09 04:00:00,
2013-10-09 00:01:00,50.1,44.8,30.26,SE,139,1.0,3.0,82,0.00,,---,0.00,VWS V14.01,2013-10-09 04:01:00,
2013-10-09 00:02:00,50.1,44.8,30.26,SE,135,1.0,1.0,82,0.00,,---,0.00,VWS V14.01,2013-10-09 04:02:00,
2013-10-09 00:06:00,50.4,44.8,30.26,ESE,112,0.0,4.0,81,0.00,,---,0.00,VWS V14.01,2013-10-09 04:06:00,
2013-10-09 00:08:00,50.5,44.9,30.26,ESE,106,1.0,4.0,81,0.00,,---,0.00,VWS V14.01,2013-10-09 04:08:00,
2013-10-09 00:13:00,50.8,44.9,30.26,ESE,120,1.0,5.0,80,0.00,,---,0.00,VWS V14.01,2013-10-09 04:13:00,
2013-10-09 00:18:00,50.8,44.9,30.26,ESE,105,1.0,5.0,80,0.00,,---,0.00,VWS V14.01,2013-10-09 04:18:00,
2013-10-09 00:23:00,50.7,45.1,30.26,ESE,108,0.0,5.0,81,0.00,,---,0.00,VWS V14.01,2013-10-09 04:23:00,
2013-10-09 00:28:00,50.5,44.9,30.26,ESE,108,0.0,5.0,81,0.00,,---,0.00,VWS V14.01,2013-10-09 04:28:00,
2013-10-09 00:33:00,50.1,44.8,30.26,East,100,0.0,5.0,82,0.00,,---,0.00,VWS V14.01,2013-10-09 04:33:00,
2013-10-09 00:38:00,50.0,44.7,30.26,ESE,106,1.0,5.0,82,0.00,,---,0.00,VWS V14.01,2013-10-09 04:38:00,
2013-10-09 00:44:00,49.7,44.8,30.26,ESE,102,0.0,5.0,83,0.00,,---,0.00,VWS V14.01,2013-10-09 04:44:00,
2013-10-09 00:49:00,49.5,44.9,30.26,ESE,108,0.0,5.0,84,0.00,,---,0.00,VWS V14.01,2013-10-09 04:49:00,
2013-10-09 00:54:00,49.5,45.2,30.26,ESE,105,1.0,5.0,85,0.00,,---,0.00,VWS V14.01,2013-10-09 04:54:00,
2013-10-09 00:59:00,50.1,45.5,30.26,ESE,108,1.0,5.0,84,0.00,,---,0.00,VWS V14.01,2013-10-09 04:59:00,
2013-10-09 01:00:00,50.1,44.8,30.26,SE,139,1.0,3.0,82,0.00,,---,0.00,VWS V14.01,2013-10-09 05:00:00,
2013-10-09 01:04:00,50.5,45.5,30.26,SSE,153,1.0,4.0,83,0.00,,---,0.00,VWS V14.01,2013-10-09 05:04:00,
2013-10-09 01:09:00,50.8,45.8,30.26,ESE,108,1.0,4.0,83,0.00,,---,0.00,VWS V14.01,2013-10-09 05:09:00,
2013-10-09 01:15:00,50.9,45.9,30.25,ESE,112,2.0,4.0,83,0.00,,---,0.00,VWS V14.01,2013-10-09 05:15:00,
2013-10-09 01:20:00,51.0,46.0,30.26,ESE,118,1.0,4.0,83,0.00,,---,0.00,VWS V14.01,2013-10-09 05:20:00,
2013-10-09 01:25:00,51.1,46.1,30.25,ESE,117,2.0,5.0,83,0.00,,---,0.00,VWS V14.01,2013-10-09 05:25:00,
2013-10-09 01:30:00,51.0,46.0,30.25,ESE,108,0.0,5.0,83,0.00,,---,0.00,VWS V14.01,2013-10-09 05:30:00,
2013-10-09 01:35:00,51.0,46.0,30.25,East,101,1.0,5.0,83,0.00,,---,0.00,VWS V14.01,2013-10-09 05:35:00,
2013-10-09 01:40:00,50.9,46.2,30.25,SE,146,0.0,5.0,84,0.00,,---,0.00,VWS V14.01,2013-10-09 05:40:00,
2013-10-09 01:45:00,50.8,46.2,30.25,SE,126,0.0,5.0,84,0.00,,---,0.00,VWS V14.01,2013-10-09 05:45:00,
2013-10-09 01:50:00,50.7,46.0,30.25,SE,125,1.0,5.0,84,0.00,,---,0.00,VWS V14.01,2013-10-09 05:50:00,
2013-10-09 01:56:00,50.5,45.8,30.25,ESE,109,0.0,5.0,84,0.00,,---,0.00,VWS V14.01,2013-10-09 05:56:00,
2013-10-09 02:00:00,50.3,45.7,30.26,ESE,122,1.0,5.0,84,0.00,,---,0.00,VWS V14.01,2013-10-09 06:00:00,
2013-10-09 02:01:00,50.2,45.6,30.25,SE,146,0.0,0.0,84,0.00,,---,0.00,VWS V14.01,2013-10-09 06:01:00,
2013-10-09 02:06:00,49.6,45.0,30.26,NE,46,0.0,1.0,84,0.00,,---,0.00,VWS V14.01,2013-10-09 06:06:00,
2013-10-09 02:11:00,48.1,43.5,30.26,NE,46,0.0,1.0,84,0.00,,---,0.00,VWS V14.01,2013-10-09 06:11:00,
2013-10-09 02:16:00,46.8,42.8,30.26,NE,49,1.0,1.0,86,0.00,,---,0.00,VWS V14.01,2013-10-09 06:16:00,
2013-10-09 02:21:00,46.0,42.7,30.26,NE,49,0.0,1.0,88,0.00,,---,0.00,VWS V14.01,2013-10-09 06:21:00,
2013-10-09 02:26:00,45.4,42.3,30.26,NE,48,0.0,1.0,89,0.00,,---,0.00,VWS V14.01,2013-10-09 06:26:00,
2013-10-09 02:31:00,45.0,42.2,30.26,NE,48,0.0,1.0,90,0.00,,---,0.00,VWS V14.01,2013-10-09 06:31:00,
2013-10-09 02:37:00,44.7,42.2,30.26,NE,49,0.0,1.0,91,0.00,,---,0.00,VWS V14.01,2013-10-09 06:37:00,
2013-10-09 02:42:00,44.4,41.9,30.26,NE,47,0.0,1.0,91,0.00,,---,0.00,VWS V14.01,2013-10-09 06:42:00,
2013-10-09 02:47:00,44.0,41.8,30.26,NE,47,0.0,1.0,92,0.00,,---,0.00,VWS V14.01,2013-10-09 06:47:00,
2013-10-09 02:52:00,43.6,41.4,30.26,NE,48,0.0,1.0,92,0.00,,---,0.00,VWS V14.01,2013-10-09 06:52:00,
2013-10-09 02:57:00,43.2,41.0,30.26,NE,49,0.0,1.0,92,0.00,,---,0.00,VWS V14.01,2013-10-09 06:57:00,
2013-10-09 03:00:00,50.2,45.6,30.25,SSE,167,0.0,5.0,84,0.00,,---,0.00,VWS V14.01,2013-10-09 07:00:00,
2013-10-09 03:02:00,42.9,40.7,30.26,NE,49,0.0,0.0,92,0.00,,---,0.00,VWS V14.01,2013-10-09 07:02:00,
2013-10-09 03:07:00,42.9,41.0,30.26,NE,46,0.0,1.0,93,0.00,,---,0.00,VWS V14.01,2013-10-09 07:07:00,
2013-10-09 03:12:00,42.9,41.3,30.26,NE,46,0.0,1.0,94,0.00,,---,0.00,VWS V14.01,2013-10-09 07:12:00,
2013-10-09 03:18:00,42.7,41.1,30.26,NE,45,0.0,1.0,94,0.00,,---,0.00,VWS V14.01,2013-10-09 07:18:00,
2013-10-09 03:23:00,42.7,41.1,30.26,NE,46,0.0,1.0,94,0.00,,---,0.00,VWS V14.01,2013-10-09 07:23:00,
2013-10-09 03:28:00,42.5,40.9,30.26,SE,134,0.0,1.0,94,0.00,,---,0.00,VWS V14.01,2013-10-09 07:28:00,
2013-10-09 03:33:00,43.1,41.8,30.26,SE,131,0.0,1.0,95,0.00,,---,0.00,VWS V14.01,2013-10-09 07:33:00,
2013-10-09 03:38:00,43.0,41.7,30.26,SE,131,0.0,1.0,95,0.00,,---,0.00,VWS V14.01,2013-10-09 07:38:00,
2013-10-09 03:43:00,43.4,42.3,30.26,SSE,150,0.0,3.0,96,0.00,,---,0.00,VWS V14.01,2013-10-09 07:43:00,
2013-10-09 03:48:00,43.8,42.7,30.26,ESE,109,0.0,3.0,96,0.00,,---,0.00,VWS V14.01,2013-10-09 07:48:00,
2013-10-09 03:53:00,43.8,42.7,30.26,ESE,108,0.0,3.0,96,0.00,,---,0.00,VWS V14.01,2013-10-09 07:53:00,
2013-10-09 03:58:00,43.5,42.2,30.26,SE,126,0.0,3.0,95,0.00,,---,0.00,VWS V14.01,2013-10-09 07:58:00,
2013-10-09 04:00:00,43.0,40.8,30.26,NE,49,0.0,1.0,92,0.00,,---,0.00,VWS V14.01,2013-10-09 08:00:00,
2013-10-09 04:03:00,43.4,42.1,30.26,SSE,156,0.0,2.0,95,0.00,,---,0.00,VWS V14.01,2013-10-09 08:03:00,
2013-10-09 04:08:00,43.1,41.8,30.26,SSE,156,0.0,2.0,95,0.00,,---,0.00,VWS V14.01,2013-10-09 08:08:00,
2013-10-09 04:14:00,42.9,41.6,30.26,East,101,0.0,2.0,95,0.00,,---,0.00,VWS V14.01,2013-10-09 08:14:00,
2013-10-09 04:19:00,42.7,41.4,30.26,East,101,0.0,2.0,95,0.00,,---,0.00,VWS V14.01,2013-10-09 08:19:00,
2013-10-09 04:24:00,42.8,41.7,30.26,ESE,116,0.0,2.0,96,0.00,,---,0.00,VWS V14.01,2013-10-09 08:24:00,
2013-10-09 04:29:00,42.5,41.2,30.26,ESE,115,0.0,2.0,95,0.00,,---,0.00,VWS V14.01,2013-10-09 08:29:00,
2013-10-09 04:34:00,42.4,41.1,30.26,ESE,114,0.0,2.0,95,0.00,,---,0.00,VWS V14.01,2013-10-09 08:34:00,
2013-10-09 04:39:00,42.3,41.2,30.26,ESE,116,0.0,2.0,96,0.00,,---,0.00,VWS V14.01,2013-10-09 08:39:00,
2013-10-09 04:44:00,42.2,41.1,30.26,ESE,115,0.0,2.0,96,0.00,,---,0.00,VWS V14.01,2013-10-09 08:44:00,
2013-10-09 04:49:00,42.0,40.9,30.27,ESE,114,0.0,2.0,96,0.00,,---,0.00,VWS V14.01,2013-10-09 08:49:00,
2013-10-09 04:54:00,42.1,41.0,30.27,NE,44,0.0,2.0,96,0.00,,---,0.00,VWS V14.01,2013-10-09 08:54:00,
2013-10-09 04:59:00,42.1,41.0,30.27,NE,44,0.0,2.0,96,0.00,,---,0.00,VWS V14.01,2013-10-09 08:59:00,
2013-10-09 05:00:00,43.4,42.1,30.26,SE,125,0.0,3.0,95,0.00,,---,0.00,VWS V14.01,2013-10-09 09:00:00,
2013-10-09 05:04:00,41.9,40.8,30.27,NE,44,0.0,0.0,96,0.00,,---,0.00,VWS V14.01,2013-10-09 09:04:00,
2013-10-09 05:09:00,41.8,40.8,30.27,NE,44,0.0,0.0,96,0.00,,---,0.00,VWS V14.01,2013-10-09 09:09:00,
2013-10-09 05:14:00,41.7,40.7,30.27,ESE,120,0.0,0.0,96,0.00,,---,0.00,VWS V14.01,2013-10-09 09:14:00,
2013-10-09 05:19:00,42.8,42.0,30.27,ESE,112,0.0,1.0,97,0.00,,---,0.00,VWS V14.01,2013-10-09 09:19:00,
2013-10-09 05:24:00,44.7,44.2,30.27,SSE,162,1.0,2.0,98,0.00,,---,0.00,VWS V14.01,2013-10-09 09:24:00,
2013-10-09 05:29:00,45.4,44.9,30.27,SSE,159,0.0,2.0,98,0.00,,---,0.00,VWS V14.01,2013-10-09 09:29:00,
2013-10-09 05:35:00,45.1,44.6,30.27,SW,222,0.0,2.0,98,0.00,,---,0.00,VWS V14.01,2013-10-09 09:35:00,
2013-10-09 05:40:00,44.4,43.6,30.27,SW,222,0.0,2.0,97,0.00,,---,0.00,VWS V14.01,2013-10-09 09:40:00,
2013-10-09 05:45:00,43.9,42.8,30.27,SW,222,0.0,2.0,96,0.00,,---,0.00,VWS V14.01,2013-10-09 09:45:00,
2013-10-09 05:50:00,43.5,42.4,30.27,SW,222,0.0,2.0,96,0.00,,---,0.00,VWS V14.01,2013-10-09 09:50:00,
2013-10-09 05:55:00,43.2,42.1,30.27,SW,222,0.0,2.0,96,0.00,,---,0.00,VWS V14.01,2013-10-09 09:55:00,
2013-10-09 06:00:00,43.1,42.3,30.28,SW,222,0.0,2.0,97,0.00,,---,0.00,VWS V14.01,2013-10-09 10:00:00,
2013-10-09 06:05:00,43.0,42.2,30.28,SW,222,0.0,0.0,97,0.00,,---,0.00,VWS V14.01,2013-10-09 10:05:00,
2013-10-09 06:10:00,42.8,41.7,30.28,SW,222,0.0,1.0,96,0.00,,---,0.00,VWS V14.01,2013-10-09 10:10:00,
2013-10-09 06:15:00,42.7,41.9,30.28,SW,222,1.0,1.0,97,0.00,,---,0.00,VWS V14.01,2013-10-09 10:15:00,
2013-10-09 06:20:00,42.6,41.5,30.28,North,8,0.0,1.0,96,0.00,,---,0.00,VWS V14.01,2013-10-09 10:20:00,
2013-10-09 06:25:00,42.5,41.7,30.28,North,11,0.0,1.0,97,0.00,,---,0.00,VWS V14.01,2013-10-09 10:25:00,
2013-10-09 06:30:00,42.3,41.5,30.28,NE,48,0.0,1.0,97,0.00,,---,0.00,VWS V14.01,2013-10-09 10:30:00,
2013-10-09 06:35:00,42.4,41.6,30.28,NE,48,0.0,1.0,97,0.00,,---,0.00,VWS V14.01,2013-10-09 10:35:00,
2013-10-09 06:40:00,42.2,41.4,30.28,NE,47,0.0,1.0,97,0.00,,---,0.00,VWS V14.01,2013-10-09 10:40:00,
2013-10-09 06:46:00,41.9,40.8,30.28,NE,47,0.0,1.0,96,0.00,,---,0.00,VWS V14.01,2013-10-09 10:46:00,
2013-10-09 06:51:00,41.7,40.9,30.28,NE,48,0.0,1.0,97,0.00,,---,0.00,VWS V14.01,2013-10-09 10:51:00,
2013-10-09 06:56:00,41.6,40.8,30.28,NE,49,0.0,1.0,97,0.00,,---,0.00,VWS V14.01,2013-10-09 10:56:00,
2013-10-09 07:00:00,43.1,42.3,30.28,SW,222,0.0,2.0,97,0.00,,---,0.00,VWS V14.01,2013-10-09 11:00:00,
2013-10-09 07:01:00,41.6,40.8,30.28,NE,49,0.0,0.0,97,0.00,,---,0.00,VWS V14.01,2013-10-09 11:01:00,
2013-10-09 07:06:00,41.4,40.6,30.28,NE,49,0.0,0.0,97,0.00,,---,0.00,VWS V14.01,2013-10-09 11:06:00,
2013-10-09 07:11:00,41.4,40.6,30.28,NE,47,0.0,0.0,97,0.00,,---,0.00,VWS V14.01,2013-10-09 11:11:00,
2013-10-09 07:16:00,41.2,40.4,30.28,NE,47,0.0,0.0,97,0.00,,---,0.00,VWS V14.01,2013-10-09 11:16:00,
2013-10-09 07:21:00,41.1,40.3,30.28,NE,49,0.0,0.0,97,0.00,,---,0.00,VWS V14.01,2013-10-09 11:21:00,
2013-10-09 07:26:00,40.9,40.1,30.28,NE,48,0.0,0.0,97,0.00,,---,0.00,VWS V14.01,2013-10-09 11:26:00,
2013-10-09 07:31:00,40.8,40.0,30.29,NE,48,0.0,0.0,97,0.00,,---,0.00,VWS V14.01,2013-10-09 11:31:00,
2013-10-09 07:36:00,40.7,39.9,30.28,NE,48,0.0,0.0,97,0.00,,---,0.00,VWS V14.01,2013-10-09 11:36:00,
2013-10-09 07:41:00,40.6,39.8,30.29,NE,48,0.0,0.0,97,0.00,,---,0.00,VWS V14.01,2013-10-09 11:41:00,
2013-10-09 07:46:00,40.6,39.8,30.29,NE,47,0.0,1.0,97,0.00,,---,0.00,VWS V14.01,2013-10-09 11:46:00,
2013-10-09 07:52:00,40.6,39.8,30.29,NE,47,0.0,1.0,97,0.00,,---,0.00,VWS V14.01,2013-10-09 11:52:00,
2013-10-09 07:57:00,40.6,39.8,30.29,NE,48,0.0,1.0,97,0.00,,---,0.00,VWS V14.01,2013-10-09 11:57:00,
2013-10-09 08:00:00,41.6,40.8,30.28,NE,48,0.0,1.0,97,0.00,,---,0.00,VWS V14.01,2013-10-09 12:00:00,
2013-10-09 08:02:00,40.6,39.8,30.29,NE,48,0.0,0.0,97,0.00,,---,0.00,VWS V14.01,2013-10-09 12:02:00,
2013-10-09 08:04:00,40.5,39.7,30.29,NE,47,0.0,0.0,97,0.00,,---,0.00,VWS V14.01,2013-10-09 12:04:00,
2013-10-09 08:09:00,40.7,39.9,30.29,NE,47,0.0,0.0,97,0.00,,---,0.00,VWS V14.01,2013-10-09 12:09:00,
2013-10-09 08:14:00,41.2,40.7,30.30,NE,47,0.0,0.0,98,0.00,,---,0.00,VWS V14.01,2013-10-09 12:14:00,
2013-10-09 08:19:00,41.6,41.1,30.30,NE,49,0.0,1.0,98,0.00,,---,0.00,VWS V14.01,2013-10-09 12:19:00,
2013-10-09 08:24:00,42.0,41.5,30.30,NE,49,0.0,1.0,98,0.00,,---,0.00,VWS V14.01,2013-10-09 12:24:00,
2013-10-09 08:29:00,42.4,41.9,30.30,NE,49,0.0,1.0,98,0.00,,---,0.00,VWS V14.01,2013-10-09 12:29:00,
2013-10-09 08:34:00,42.9,42.4,30.30,NE,51,0.0,1.0,98,0.00,,---,0.00,VWS V14.01,2013-10-09 12:34:00,
2013-10-09 08:39:00,43.5,43.0,30.30,NE,51,0.0,1.0,98,0.00,,---,0.00,VWS V14.01,2013-10-09 12:39:00,
2013-10-09 08:44:00,44.4,43.9,30.30,NE,51,0.0,1.0,98,0.00,,---,0.00,VWS V14.01,2013-10-09 12:44:00,
2013-10-09 08:49:00,45.4,44.9,30.30,NE,51,0.0,1.0,98,0.00,,---,0.00,VWS V14.01,2013-10-09 12:49:00,
2013-10-09 08:54:00,46.0,45.5,30.30,NE,47,1.0,1.0,98,0.00,,---,0.00,VWS V14.01,2013-10-09 12:54:00,
2013-10-09 08:59:00,46.4,45.9,30.30,NE,34,0.0,2.0,98,0.00,,---,0.00,VWS V14.01,2013-10-09 12:59:00,
2013-10-09 09:00:00,40.6,39.8,30.29,NE,49,0.0,1.0,97,0.00,,---,0.00,VWS V14.01,2013-10-09 13:00:00,
2013-10-09 09:05:00,47.2,46.7,30.31,NE,34,0.0,0.0,98,0.00,,---,0.00,VWS V14.01,2013-10-09 13:05:00,
2013-10-09 09:10:00,48.6,48.1,30.31,NE,34,0.0,0.0,98,0.00,,---,0.00,VWS V14.01,2013-10-09 13:10:00,
2013-10-09 09:15:00,49.6,49.1,30.31,NE,34,0.0,1.0,98,0.00,,---,0.00,VWS V14.01,2013-10-09 13:15:00,
2013-10-09 09:20:00,49.9,49.1,30.31,North,10,1.0,2.0,97,0.00,,---,0.00,VWS V14.01,2013-10-09 13:20:00,
2013-10-09 09:25:00,50.4,49.6,30.31,North,354,0.0,2.0,97,0.00,,---,0.00,VWS V14.01,2013-10-09 13:25:00,
2013-10-09 09:30:00,51.1,50.3,30.31,North,354,0.0,2.0,97,0.00,,---,0.00,VWS V14.01,2013-10-09 13:30:00,
2013-10-09 09:35:00,52.2,51.4,30.31,NNE,33,0.0,2.0,97,0.00,,---,0.00,VWS V14.01,2013-10-09 13:35:00,
2013-10-09 09:40:00,53.2,52.4,30.31,NE,36,0.0,2.0,97,0.00,,---,0.00,VWS V14.01,2013-10-09 13:40:00,
2013-10-09 09:45:00,54.1,53.0,30.31,NE,34,0.0,2.0,96,0.00,,---,0.00,VWS V14.01,2013-10-09 13:45:00,
2013-10-09 09:50:00,54.7,53.3,30.31,NE,34,0.0,2.0,95,0.00,,---,0.00,VWS V14.01,2013-10-09 13:50:00,
2013-10-09 09:55:00,55.5,53.8,30.31,NE,34,0.0,2.0,94,0.00,,---,0.00,VWS V14.01,2013-10-09 13:55:00,
2013-10-09 10:00:00,56.4,54.4,30.31,NNE,32,0.0,2.0,93,0.00,,---,0.00,VWS V14.01,2013-10-09 14:00:00,
2013-10-09 10:06:00,57.5,55.5,30.31,NE,50,0.0,1.0,93,0.00,,---,0.00,VWS V14.01,2013-10-09 14:06:00,
2013-10-09 10:11:00,58.9,55.0,30.31,SE,126,0.0,1.0,87,0.00,,---,0.00,VWS V14.01,2013-10-09 14:11:00,
2013-10-09 10:16:00,59.7,54.5,30.31,WSW,239,0.0,2.0,83,0.00,,---,0.00,VWS V14.01,2013-10-09 14:16:00,
2013-10-09 10:21:00,60.2,54.7,30.31,South,187,1.0,2.0,82,0.00,,---,0.00,VWS V14.01,2013-10-09 14:21:00,
2013-10-09 10:26:00,60.5,53.3,30.31,SE,128,0.0,2.0,77,0.00,,---,0.00,VWS V14.01,2013-10-09 14:26:00,
2013-10-09 10:31:00,60.9,52.2,30.31,SSE,148,2.0,4.0,73,0.00,,---,0.00,VWS V14.01,2013-10-09 14:31:00,
2013-10-09 10:36:00,61.2,52.5,30.31,SE,131,0.0,4.0,73,0.00,,---,0.00,VWS V14.01,2013-10-09 14:36:00,
2013-10-09 10:41:00,61.8,53.4,30.31,South,180,4.0,5.0,74,0.00,,---,0.00,VWS V14.01,2013-10-09 14:41:00,
2013-10-09 10:46:00,62.0,52.9,30.31,SE,129,2.0,5.0,72,0.00,,---,0.00,VWS V14.01,2013-10-09 14:46:00,
2013-10-09 10:51:00,62.1,52.6,30.31,SSE,149,2.0,5.0,71,0.00,,---,0.00,VWS V14.01,2013-10-09 14:51:00,
2013-10-09 10:56:00,62.2,52.3,30.31,SE,145,4.0,5.0,70,0.00,,---,0.00,VWS V14.01,2013-10-09 14:56:00,
2013-10-09 11:00:00,56.5,54.5,30.31,NNE,32,0.0,2.0,93,0.00,,---,0.00,VWS V14.01,2013-10-09 15:00:00,
2013-10-09 11:01:00,62.0,52.1,30.30,East,98,4.0,4.0,70,0.00,,---,0.00,VWS V14.01,2013-10-09 15:01:00,
2013-10-09 11:06:00,61.9,51.6,30.30,SE,124,2.0,6.0,69,0.00,,---,0.00,VWS V14.01,2013-10-09 15:06:00,
2013-10-09 11:11:00,62.3,51.6,30.30,SE,135,3.0,6.0,68,0.00,,---,0.00,VWS V14.01,2013-10-09 15:11:00,
2013-10-09 11:16:00,62.6,51.9,30.30,SE,139,1.0,7.0,68,0.00,,---,0.00,VWS V14.01,2013-10-09 15:16:00,
2013-10-09 11:22:00,63.0,52.3,30.30,SE,136,3.0,9.0,68,0.00,,---,0.00,VWS V14.01,2013-10-09 15:22:00,
2013-10-09 11:27:00,63.1,51.6,30.30,SE,136,6.0,9.0,66,0.00,,---,0.00,VWS V14.01,2013-10-09 15:27:00,
2013-10-09 11:32:00,63.4,51.9,30.30,SSE,150,4.0,9.0,66,0.00,,---,0.00,VWS V14.01,2013-10-09 15:32:00,
2013-10-09 11:37:00,63.5,51.5,30.30,SSE,156,3.0,10.0,65,0.00,,---,0.00,VWS V14.01,2013-10-09 15:37:00,
2013-10-09 11:42:00,63.7,53.0,30.30,East,89,4.0,10.0,68,0.00,,---,0.00,VWS V14.01,2013-10-09 15:42:00,
2013-10-09 11:47:00,63.8,53.5,30.30,SW,231,2.0,10.0,69,0.00,,---,0.00,VWS V14.01,2013-10-09 15:47:00,
2013-10-09 11:52:00,64.0,52.8,30.30,SE,139,6.0,10.0,67,0.00,,---,0.00,VWS V14.01,2013-10-09 15:52:00,
2013-10-09 11:57:00,63.9,53.5,30.30,SE,135,5.0,10.0,69,0.00,,---,0.00,VWS V14.01,2013-10-09 15:57:00,
2013-10-09 12:00:00,62.0,51.7,30.30,East,84,2.0,6.0,69,0.00,,---,0.00,VWS V14.01,2013-10-09 16:00:00,
2013-10-09 12:02:00,63.9,53.5,30.30,SE,141,2.0,3.0,69,0.00,,---,0.00,VWS V14.01,2013-10-09 16:02:00,
2013-10-09 12:07:00,64.1,53.3,30.30,SE,124,5.0,6.0,68,0.00,,---,0.00,VWS V14.01,2013-10-09 16:07:00,
2013-10-09 12:12:00,64.6,52.2,30.30,SSE,149,4.0,8.0,64,0.00,,---,0.00,VWS V14.01,2013-10-09 16:12:00,
2013-10-09 12:17:00,64.8,51.0,30.29,SSW,208,7.0,11.0,61,0.00,,---,0.00,VWS V14.01,2013-10-09 16:17:00,
2013-10-09 12:22:00,64.7,50.1,30.29,ESE,121,8.0,11.0,59,0.00,,---,0.00,VWS V14.01,2013-10-09 16:22:00,
2013-10-09 12:27:00,64.7,50.5,30.29,NE,47,4.0,11.0,60,0.00,,---,0.00,VWS V14.01,2013-10-09 16:27:00,
2013-10-09 12:33:00,64.8,51.5,30.29,SE,134,5.0,11.0,62,0.00,,---,0.00,VWS V14.01,2013-10-09 16:33:00,
2013-10-09 12:38:00,65.3,51.5,30.29,NE,56,5.0,11.0,61,0.00,,---,0.00,VWS V14.01,2013-10-09 16:38:00,
2013-10-09 12:43:00,65.3,52.0,30.29,ESE,121,2.0,11.0,62,0.00,,---,0.00,VWS V14.01,2013-10-09 16:43:00,
2013-10-09 12:48:00,65.6,51.4,30.29,SE,129,7.0,11.0,60,0.00,,---,0.00,VWS V14.01,2013-10-09 16:48:00,
2013-10-09 12:53:00,65.6,51.4,30.29,ESE,118,3.0,11.0,60,0.00,,---,0.00,VWS V14.01,2013-10-09 16:53:00,
2013-10-09 12:58:00,65.6,50.4,30.29,South,180,7.0,11.0,58,0.00,,---,0.00,VWS V14.01,2013-10-09 16:58:00,
2013-10-09 13:00:00,63.8,53.5,30.30,SSE,155,3.0,10.0,69,0.00,,---,0.00,VWS V14.01,2013-10-09 17:00:00,
2013-10-09 13:03:00,66.0,50.3,30.28,SE,128,10.0,10.0,57,0.00,,---,0.00,VWS V14.01,2013-10-09 17:03:00,
2013-10-09 13:08:00,66.0,50.3,30.28,South,180,4.0,10.0,57,0.00,,---,0.00,VWS V14.01,2013-10-09 17:08:00,
2013-10-09 13:13:00,65.9,49.8,30.28,ENE,77,10.0,13.0,56,0.00,,---,0.00,VWS V14.01,2013-10-09 17:13:00,
2013-10-09 13:18:00,66.0,51.3,30.28,SSW,201,3.0,13.0,59,0.00,,---,0.00,VWS V14.01,2013-10-09 17:18:00,
2013-10-09 13:23:00,66.0,49.9,30.27,SE,124,3.0,13.0,56,0.00,,---,0.00,VWS V14.01,2013-10-09 17:23:00,
2013-10-09 13:28:00,66.1,50.0,30.27,SE,141,7.0,13.0,56,0.00,,---,0.00,VWS V14.01,2013-10-09 17:28:00,
2013-10-09 13:33:00,66.1,50.0,30.27,ESE,117,5.0,13.0,56,0.00,,---,0.00,VWS V14.01,2013-10-09 17:33:00,
2013-10-09 13:38:00,66.4,50.2,30.27,SE,127,2.0,13.0,56,0.00,,---,0.00,VWS V14.01,2013-10-09 17:38:00,
2013-10-09 13:43:00,66.4,49.8,30.27,East,100,4.0,14.0,55,0.00,,---,0.00,VWS V14.01,2013-10-09 17:43:00,
2013-10-09 13:48:00,66.4,50.2,30.26,SE,136,3.0,14.0,56,0.00,,---,0.00,VWS V14.01,2013-10-09 17:48:00,
2013-10-09 13:54:00,66.8,50.1,30.26,East,96,5.0,14.0,55,0.00,,---,0.00,VWS V14.01,2013-10-09 17:54:00,
2013-10-09 13:59:00,67.3,51.1,30.26,East,96,1.0,14.0,56,0.00,,---,0.00,VWS V14.01,2013-10-09 17:59:00,
2013-10-09 14:00:00,65.8,51.1,30.28,ESE,114,2.0,11.0,59,0.00,,---,0.00,VWS V14.01,2013-10-09 18:00:00,
2013-10-09 14:04:00,67.3,50.6,30.26,SSE,149,3.0,9.0,55,0.00,,---,0.00,VWS V14.01,2013-10-09 18:04:00,
2013-10-09 14:09:00,67.3,50.6,30.26,ESE,103,10.0,10.0,55,0.00,,---,0.00,VWS V14.01,2013-10-09 18:09:00,
2013-10-09 14:14:00,67.3,49.6,30.26,SSE,167,5.0,11.0,53,0.00,,---,0.00,VWS V14.01,2013-10-09 18:14:00,
2013-10-09 14:19:00,67.6,48.8,30.26,SW,222,5.0,11.0,51,0.00,,---,0.00,VWS V14.01,2013-10-09 18:19:00,
2013-10-09 14:24:00,68.0,49.2,30.25,SE,145,4.0,11.0,51,0.00,,---,0.00,VWS V14.01,2013-10-09 18:24:00,
2013-10-09 14:29:00,68.0,49.2,30.25,ESE,121,9.0,11.0,51,0.00,,---,0.00,VWS V14.01,2013-10-09 18:29:00,
2013-10-09 14:34:00,68.0,49.7,30.25,SE,126,4.0,11.0,52,0.00,,---,0.00,VWS V14.01,2013-10-09 18:34:00,
2013-10-09 14:39:00,68.6,50.3,30.25,ENE,69,4.0,11.0,52,0.00,,---,0.00,VWS V14.01,2013-10-09 18:39:00,
2013-10-09 14:44:00,68.2,49.9,30.25,ENE,60,7.0,11.0,52,0.00,,---,0.00,VWS V14.01,2013-10-09 18:44:00,
2013-10-09 14:49:00,68.2,49.9,30.25,South,172,7.0,11.0,52,0.00,,---,0.00,VWS V14.01,2013-10-09 18:49:00,
2013-10-09 14:54:00,68.1,48.8,30.25,SE,146,5.0,11.0,50,0.00,,---,0.00,VWS V14.01,2013-10-09 18:54:00,
2013-10-09 14:59:00,68.0,48.7,30.25,ESE,120,2.0,11.0,50,0.00,,---,0.00,VWS V14.01,2013-10-09 18:59:00,
2013-10-09 15:00:00,67.4,50.7,30.26,East,90,5.0,14.0,55,0.00,,---,0.00,VWS V14.01,2013-10-09 19:00:00,
2013-10-09 15:04:00,68.3,49.0,30.24,SE,142,6.0,10.0,50,0.00,,---,0.00,VWS V14.01,2013-10-09 19:04:00,
2013-10-09 15:10:00,68.5,49.2,30.24,South,187,7.0,11.0,50,0.00,,---,0.00,VWS V14.01,2013-10-09 19:10:00,
2013-10-09 15:15:00,68.7,48.8,30.24,ESE,110,6.0,11.0,49,0.00,,---,0.00,VWS V14.01,2013-10-09 19:15:00,
2013-10-09 15:20:00,68.4,49.1,30.24,ESE,105,3.0,11.0,50,0.00,,---,0.00,VWS V14.01,2013-10-09 19:20:00,
2013-10-09 15:25:00,68.6,50.3,30.24,SE,135,7.0,11.0,52,0.00,,---,0.00,VWS V14.01,2013-10-09 19:25:00,
2013-10-09 15:30:00,68.4,49.1,30.24,NE,46,3.0,11.0,50,0.00,,---,0.00,VWS V14.01,2013-10-09 19:30:00,
2013-10-09 15:35:00,68.4,49.1,30.23,ESE,110,2.0,11.0,50,0.00,,---,0.00,VWS V14.01,2013-10-09 19:35:00,
2013-10-09 15:40:00,68.8,50.0,30.23,South,177,3.0,11.0,51,0.00,,---,0.00,VWS V14.01,2013-10-09 19:40:00,
2013-10-09 15:45:00,69.2,50.8,30.23,SE,139,6.0,11.0,52,0.00,,---,0.00,VWS V14.01,2013-10-09 19:45:00,
2013-10-09 15:50:00,69.3,50.9,30.23,South,172,4.0,11.0,52,0.00,,---,0.00,VWS V14.01,2013-10-09 19:50:00,
2013-10-09 15:55:00,69.7,50.8,30.23,SE,135,5.0,11.0,51,0.00,,---,0.00,VWS V14.01,2013-10-09 19:55:00,
2013-10-09 16:00:00,69.8,50.9,30.23,SSE,161,6.0,11.0,51,0.00,,---,0.00,VWS V14.01,2013-10-09 20:00:00,
2013-10-09 16:05:00,69.6,50.2,30.23,SE,141,1.0,8.0,50,0.00,,---,0.00,VWS V14.01,2013-10-09 20:05:00,
2013-10-09 16:10:00,70.0,51.1,30.23,SE,131,3.0,8.0,51,0.00,,---,0.00,VWS V14.01,2013-10-09 20:10:00,
2013-10-09 16:15:00,69.7,50.8,30.23,SSE,159,3.0,10.0,51,0.00,,---,0.00,VWS V14.01,2013-10-09 20:15:00,
2013-10-09 16:20:00,69.6,51.7,30.22,SE,141,5.0,10.0,53,0.00,,---,0.00,VWS V14.01,2013-10-09 20:20:00,
2013-10-09 16:26:00,69.8,51.4,30.22,ESE,118,7.0,10.0,52,0.00,,---,0.00,VWS V14.01,2013-10-09 20:26:00,
2013-10-09 16:31:00,69.2,49.2,30.22,East,89,5.0,10.0,49,0.00,,---,0.00,VWS V14.01,2013-10-09 20:31:00,
2013-10-09 16:36:00,68.9,49.0,30.22,ESE,102,7.0,10.0,49,0.00,,---,0.00,VWS V14.01,2013-10-09 20:36:00,
2013-10-09 16:41:00,68.6,48.7,30.22,ENE,75,4.0,10.0,49,0.00,,---,0.00,VWS V14.01,2013-10-09 20:41:00,
2013-10-09 16:46:00,68.8,48.9,30.22,ESE,121,3.0,10.0,49,0.00,,---,0.00,VWS V14.01,2013-10-09 20:46:00,
2013-10-09 16:51:00,68.9,49.5,30.22,East,89,4.0,10.0,50,0.00,,---,0.00,VWS V14.01,2013-10-09 20:51:00,
2013-10-09 16:56:00,68.8,48.9,30.22,ESE,119,9.0,10.0,49,0.00,,---,0.00,VWS V14.01,2013-10-09 20:56:00,
2013-10-09 17:00:00,69.8,50.9,30.23,SE,143,5.0,11.0,51,0.00,,---,0.00,VWS V14.01,2013-10-09 21:00:00,
2013-10-09 17:01:00,68.6,49.2,30.21,East,96,5.0,5.0,50,0.00,,---,0.00,VWS V14.01,2013-10-09 21:01:00,
2013-10-09 17:06:00,68.5,49.7,30.21,ESE,118,5.0,7.0,51,0.00,,---,0.00,VWS V14.01,2013-10-09 21:06:00,
2013-10-09 17:11:00,68.4,49.6,30.21,East,96,4.0,7.0,51,0.00,,---,0.00,VWS V14.01,2013-10-09 21:11:00,
2013-10-09 17:16:00,68.3,50.0,30.21,East,90,6.0,7.0,52,0.00,,---,0.00,VWS V14.01,2013-10-09 21:16:00,
2013-10-09 17:21:00,68.1,49.3,30.21,East,79,5.0,9.0,51,0.00,,---,0.00,VWS V14.01,2013-10-09 21:21:00,
2013-10-09 17:26:00,67.9,49.1,30.21,ESE,105,3.0,9.0,51,0.00,,---,0.00,VWS V14.01,2013-10-09 21:26:00,
2013-10-09 17:32:00,67.9,49.7,30.21,East,96,5.0,9.0,52,0.00,,---,0.00,VWS V14.01,2013-10-09 21:32:00,
2013-10-09 17:37:00,67.9,49.7,30.21,ESE,120,3.0,9.0,52,0.00,,---,0.00,VWS V14.01,2013-10-09 21:37:00,
2013-10-09 17:42:00,67.8,49.0,30.21,ESE,117,4.0,9.0,51,0.00,,---,0.00,VWS V14.01,2013-10-09 21:42:00,
2013-10-09 17:47:00,67.6,48.8,30.21,ESE,115,3.0,9.0,51,0.00,,---,0.00,VWS V14.01,2013-10-09 21:47:00,
2013-10-09 17:52:00,67.5,48.8,30.21,ESE,106,2.0,9.0,51,0.00,,---,0.00,VWS V14.01,2013-10-09 21:52:00,
2013-10-09 17:58:00,67.5,49.8,30.21,ESE,112,3.0,9.0,53,0.00,,---,0.00,VWS V14.01,2013-10-09 21:58:00,
2013-10-09 18:00:00,68.6,49.8,30.21,ENE,76,2.0,10.0,51,0.00,,---,0.00,VWS V14.01,2013-10-09 22:00:00,
2013-10-09 18:03:00,67.5,49.3,30.21,ESE,122,1.0,5.0,52,0.00,,---,0.00,VWS V14.01,2013-10-09 22:03:00,
2013-10-09 18:08:00,67.3,49.6,30.21,East,98,1.0,5.0,53,0.00,,---,0.00,VWS V14.01,2013-10-09 22:08:00,
2013-10-09 18:13:00,67.2,49.0,30.21,ESE,120,3.0,5.0,52,0.00,,---,0.00,VWS V14.01,2013-10-09 22:13:00,
2013-10-09 18:18:00,67.0,49.3,30.21,SE,144,2.0,5.0,53,0.00,,---,0.00,VWS V14.01,2013-10-09 22:18:00,
2013-10-09 18:23:00,67.0,49.3,30.21,SE,126,2.0,5.0,53,0.00,,---,0.00,VWS V14.01,2013-10-09 22:23:00,
2013-10-09 18:28:00,66.8,49.1,30.21,SE,139,2.0,5.0,53,0.00,,---,0.00,VWS V14.01,2013-10-09 22:28:00,
2013-10-09 18:33:00,66.7,49.0,30.20,SE,135,1.0,5.0,53,0.00,,---,0.00,VWS V14.01,2013-10-09 22:33:00,
2013-10-09 18:38:00,66.7,49.0,30.20,SE,127,0.0,5.0,53,0.00,,---,0.00,VWS V14.01,2013-10-09 22:38:00,
2013-10-09 18:43:00,66.4,48.8,30.20,ESE,118,0.0,5.0,53,0.00,,---,0.00,VWS V14.01,2013-10-09 22:43:00,
2013-10-09 18:48:00,65.7,48.6,30.20,ESE,118,0.0,5.0,54,0.00,,---,0.00,VWS V14.01,2013-10-09 22:48:00,
2013-10-09 18:53:00,64.7,49.1,30.20,East,100,0.0,5.0,57,0.00,,---,0.00,VWS V14.01,2013-10-09 22:53:00,
2013-10-09 18:59:00,63.5,48.9,30.20,East,95,0.0,5.0,59,0.00,,---,0.00,VWS V14.01,2013-10-09 22:59:00,
2013-10-09 19:00:00,67.5,49.8,30.21,ESE,119,3.0,9.0,53,0.00,,---,0.00,VWS V14.01,2013-10-09 23:00:00,
2013-10-09 19:04:00,62.0,49.7,30.21,East,94,0.0,0.0,64,0.00,,---,0.00,VWS V14.01,2013-10-09 23:04:00,
2013-10-09 19:09:00,60.3,49.3,30.21,East,94,0.0,0.0,67,0.00,,---,0.00,VWS V14.01,2013-10-09 23:09:00,
2013-10-09 19:14:00,59.0,49.2,30.21,East,94,0.0,0.0,70,0.00,,---,0.00,VWS V14.01,2013-10-09 23:14:00,
2013-10-09 19:19:00,58.0,49.4,30.21,East,94,0.0,1.0,73,0.00,,---,0.00,VWS V14.01,2013-10-09 23:19:00,
2013-10-09 19:24:00,56.8,49.3,30.21,ENE,70,1.0,2.0,76,0.00,,---,0.00,VWS V14.01,2013-10-09 23:24:00,
2013-10-09 19:29:00,56.0,49.2,30.21,ENE,70,0.0,2.0,78,0.00,,---,0.00,VWS V14.01,2013-10-09 23:29:00,
2013-10-09 19:34:00,55.5,49.1,30.21,ENE,70,0.0,2.0,79,0.00,,---,0.00,VWS V14.01,2013-10-09 23:34:00,
2013-10-09 19:39:00,54.9,48.9,30.21,East,79,2.0,2.0,80,0.00,,---,0.00,VWS V14.01,2013-10-09 23:39:00,
2013-10-09 19:44:00,55.4,48.0,30.21,East,96,1.0,3.0,76,0.00,,---,0.00,VWS V14.01,2013-10-09 23:44:00,
2013-10-09 19:49:00,56.9,47.6,30.21,ESE,114,1.0,3.0,71,0.00,,---,0.00,VWS V14.01,2013-10-09 23:49:00,
2013-10-09 19:54:00,58.0,47.1,30.21,East,98,3.0,5.0,67,0.00,,---,0.00,VWS V14.01,2013-10-09 23:54:00,
2013-10-09 20:00:00,58.7,47.4,30.21,SE,125,1.0,5.0,66,0.00,,---,0.00,VWS V14.01,2013-10-10 00:00:00,
2013-10-09 20:05:00,58.7,47.4,30.21,SE,139,0.0,2.0,66,0.00,,---,0.00,VWS V14.01,2013-10-10 00:05:00,
2013-10-09 20:10:00,58.3,47.4,30.21,ESE,106,1.0,2.0,67,0.00,,---,0.00,VWS V14.01,2013-10-10 00:10:00,
2013-10-09 20:15:00,58.0,47.1,30.21,ESE,121,2.0,3.0,67,0.00,,---,0.00,VWS V14.01,2013-10-10 00:15:00,
2013-10-09 20:20:00,57.9,47.0,30.21,SE,135,2.0,3.0,67,0.00,,---,0.00,VWS V14.01,2013-10-10 00:20:00,
2013-10-09 20:26:00,57.7,47.2,30.21,SE,131,1.0,3.0,68,0.00,,---,0.00,VWS V14.01,2013-10-10 00:26:00,
2013-10-09 20:31:00,57.5,47.0,30.21,ESE,108,2.0,3.0,68,0.00,,---,0.00,VWS V14.01,2013-10-10 00:31:00,
2013-10-09 20:36:00,57.1,47.0,30.21,East,101,1.0,3.0,69,0.00,,---,0.00,VWS V14.01,2013-10-10 00:36:00,
2013-10-09 20:41:00,56.8,46.8,30.22,ESE,115,1.0,3.0,69,0.00,,---,0.00,VWS V14.01,2013-10-10 00:41:00,
2013-10-09 20:46:00,56.5,46.8,30.22,East,99,0.0,3.0,70,0.00,,---,0.00,VWS V14.01,2013-10-10 00:46:00,
2013-10-09 20:51:00,55.8,46.9,30.22,East,99,0.0,3.0,72,0.00,,---,0.00,VWS V14.01,2013-10-10 00:51:00,
2013-10-09 20:56:00,55.0,46.9,30.22,East,88,0.0,3.0,74,0.00,,---,0.00,VWS V14.01,2013-10-10 00:56:00,
2013-10-09 21:00:00,58.7,47.0,30.21,SE,134,1.0,5.0,65,0.00,,---,0.00,VWS V14.01,2013-10-10 01:00:00,
2013-10-09 21:01:00,54.4,47.0,30.22,East,85,0.0,0.0,76,0.00,,---,0.00,VWS V14.01,2013-10-10 01:01:00,
2013-10-09 21:06:00,53.6,46.9,30.22,East,84,0.0,1.0,78,0.00,,---,0.00,VWS V14.01,2013-10-10 01:06:00,
2013-10-09 21:12:00,52.3,46.3,30.22,East,85,0.0,1.0,80,0.00,,---,0.00,VWS V14.01,2013-10-10 01:12:00,
2013-10-09 21:17:00,51.3,45.7,30.22,East,84,0.0,1.0,81,0.00,,---,0.00,VWS V14.01,2013-10-10 01:17:00,
2013-10-09 21:22:00,50.7,45.7,30.22,East,85,0.0,1.0,83,0.00,,---,0.00,VWS V14.01,2013-10-10 01:22:00,
2013-10-09 21:27:00,50.3,46.0,30.22,East,85,0.0,1.0,85,0.00,,---,0.00,VWS V14.01,2013-10-10 01:27:00,
2013-10-09 21:32:00,50.2,46.2,30.22,East,85,0.0,1.0,86,0.00,,---,0.00,VWS V14.01,2013-10-10 01:32:00,
2013-10-09 21:37:00,50.1,45.8,30.22,East,99,0.0,2.0,85,0.00,,---,0.00,VWS V14.01,2013-10-10 01:37:00,
2013-10-09 21:42:00,50.1,45.8,30.22,ENE,73,0.0,2.0,85,0.00,,---,0.00,VWS V14.01,2013-10-10 01:42:00,
2013-10-09 21:47:00,50.1,45.8,30.22,East,79,0.0,2.0,85,0.00,,---,0.00,VWS V14.01,2013-10-10 01:47:00,
2013-10-09 21:53:00,50.0,46.0,30.22,East,79,0.0,2.0,86,0.00,,---,0.00,VWS V14.01,2013-10-10 01:53:00,
2013-10-09 21:58:00,50.4,46.1,30.22,ENE,73,0.0,2.0,85,0.00,,---,0.00,VWS V14.01,2013-10-10 01:58:00,
2013-10-09 22:00:00,54.5,47.1,30.22,East,84,0.0,3.0,76,0.00,,---,0.00,VWS V14.01,2013-10-10 02:00:00,
2013-10-09 22:03:00,50.8,46.2,30.22,East,89,0.0,0.0,84,0.00,,---,0.00,VWS V14.01,2013-10-10 02:03:00,
2013-10-09 22:08:00,50.7,45.7,30.22,ENE,75,1.0,1.0,83,0.00,,---,0.00,VWS V14.01,2013-10-10 02:08:00,
2013-10-09 22:13:00,50.1,45.2,30.22,ENE,75,0.0,1.0,83,0.00,,---,0.00,VWS V14.01,2013-10-10 02:13:00,
2013-10-09 22:18:00,49.2,44.9,30.22,ENE,74,0.0,1.0,85,0.00,,---,0.00,VWS V14.01,2013-10-10 02:18:00,
2013-10-09 22:23:00,48.5,44.8,30.22,ENE,72,0.0,1.0,87,0.00,,---,0.00,VWS V14.01,2013-10-10 02:23:00,
2013-10-09 22:28:00,47.9,44.5,30.22,ENE,70,0.0,2.0,88,0.00,,---,0.00,VWS V14.01,2013-10-10 02:28:00,
2013-10-09 22:34:00,47.4,44.3,30.22,ENE,70,0.0,2.0,89,0.00,,---,0.00,VWS V14.01,2013-10-10 02:34:00,
2013-10-09 22:39:00,47.1,44.3,30.22,ENE,70,0.0,2.0,90,0.00,,---,0.00,VWS V14.01,2013-10-10 02:39:00,
2013-10-09 22:44:00,46.7,43.9,30.22,ENE,69,0.0,2.0,90,0.00,,---,0.00,VWS V14.01,2013-10-10 02:44:00,
2013-10-09 22:49:00,46.4,43.9,30.22,ENE,69,0.0,2.0,91,0.00,,---,0.00,VWS V14.01,2013-10-10 02:49:00,
2013-10-09 22:54:00,46.3,44.1,30.22,ENE,69,0.0,2.0,92,0.00,,---,0.00,VWS V14.01,2013-10-10 02:54:00,
2013-10-09 22:59:00,46.1,43.9,30.22,ENE,70,0.0,2.0,92,0.00,,---,0.00,VWS V14.01,2013-10-10 02:59:00,
2013-10-09 23:00:00,50.6,46.0,30.22,East,90,0.0,2.0,84,0.00,,---,0.00,VWS V14.01,2013-10-10 03:00:00,
2013-10-09 23:04:00,45.9,43.7,30.22,ENE,70,0.0,0.0,92,0.00,,---,0.00,VWS V14.01,2013-10-10 03:04:00,
2013-10-09 23:09:00,45.7,43.8,30.22,ENE,70,0.0,1.0,93,0.00,,---,0.00,VWS V14.01,2013-10-10 03:09:00,
2013-10-09 23:15:00,45.5,43.6,30.22,ENE,70,0.0,1.0,93,0.00,,---,0.00,VWS V14.01,2013-10-10 03:15:00,
2013-10-09 23:20:00,45.3,43.4,30.22,ENE,69,0.0,1.0,93,0.00,,---,0.00,VWS V14.01,2013-10-10 03:20:00,
2013-10-09 23:25:00,45.2,43.6,30.22,ENE,70,0.0,1.0,94,0.00,,---,0.00,VWS V14.01,2013-10-10 03:25:00,
2013-10-09 23:30:00,45.1,43.5,30.22,ENE,70,0.0,1.0,94,0.00,,---,0.00,VWS V14.01,2013-10-10 03:30:00,
2013-10-09 23:35:00,44.9,43.3,30.23,ENE,69,0.0,1.0,94,0.00,,---,0.00,VWS V14.01,2013-10-10 03:35:00,
2013-10-09 23:40:00,44.8,43.2,30.22,ENE,69,0.0,1.0,94,0.00,,---,0.00,VWS V14.01,2013-10-10 03:40:00,
2013-10-09 23:45:00,44.6,43.0,30.22,ENE,70,0.0,1.0,94,0.00,,---,0.00,VWS V14.01,2013-10-10 03:45:00,
2013-10-09 23:50:00,44.6,43.3,30.22,ENE,62,0.0,1.0,95,0.00,,---,0.00,VWS V14.01,2013-10-10 03:50:00,
2013-10-09 23:55:00,44.6,43.3,30.22,ENE,63,0.0,1.0,95,0.00,,---,0.00,VWS V14.01,2013-10-10 03:55:00,